TimeEST,TemperatureF,Dew PointF,Humidity,Sea Level PressureIn,VisibilityMPH,Wind Direction,Wind SpeedMPH,Gust SpeedMPH,PrecipitationIn,Events,Conditions,WindDirDegrees,DateUTC
12:56 AM,26.1,21.0,81,29.91,-9999.0,NW,4.6,-,N/A,,Unknown,320,2013-02-16 05:56:00
1:56 AM,27.0,19.9,75,29.91,-9999.0,North,4.6,-,N/A,,Unknown,10,2013-02-16 06:56:00
2:56 AM,26.1,19.9,78,29.90,-9999.0,NNE,4.6,-,N/A,,Unknown,30,2013-02-16 07:56:00
3:56 AM,26.1,19.0,75,29.89,-9999.0,NE,5.8,-,N/A,,Unknown,40,2013-02-16 08:56:00
4:56 AM,26.1,19.0,75,29.90,-9999.0,Calm,Calm,-,N/A,,Unknown,0,2013-02-16 09:56:00
5:56 AM,26.1,19.9,78,29.91,-9999.0,NNW,5.8,-,N/A,,Unknown,340,2013-02-16 10:56:00
6:56 AM,23.0,19.9,88,29.93,-9999.0,NNW,8.1,-,N/A,,Unknown,340,2013-02-16 11:56:00
7:56 AM,21.9,19.0,89,29.94,-9999.0,North,8.1,-,0.02,,Unknown,350,2013-02-16 12:56:00
8:56 AM,21.9,19.0,89,29.94,-9999.0,NNW,11.5,18.4,0.01,,Unknown,330,2013-02-16 13:56:00
9:56 AM,23.0,19.0,85,29.93,-9999.0,NW,11.5,18.4,N/A,,Unknown,320,2013-02-16 14:56:00
10:56 AM,24.1,17.1,75,29.93,-9999.0,NNW,11.5,18.4,N/A,,Unknown,330,2013-02-16 15:56:00
11:56 AM,25.0,17.1,72,29.90,-9999.0,NNW,12.7,-,N/A,,Unknown,330,2013-02-16 16:56:00
12:56 PM,25.0,16.0,69,29.88,-9999.0,NNW,10.4,19.6,N/A,,Unknown,340,2013-02-16 17:56:00
1:56 PM,25.0,16.0,69,29.87,-9999.0,NNW,6.9,-,N/A,,Unknown,330,2013-02-16 18:56:00
2:56 PM,25.0,17.1,72,29.87,-9999.0,NW,6.9,-,N/A,,Unknown,320,2013-02-16 19:56:00
3:56 PM,25.0,18.0,75,29.87,-9999.0,North,6.9,-,N/A,,Unknown,360,2013-02-16 20:56:00
4:56 PM,24.1,18.0,77,29.87,-9999.0,NNW,8.1,-,N/A,,Unknown,340,2013-02-16 21:56:00
5:56 PM,23.0,14.0,68,29.87,-9999.0,NNW,11.5,-,N/A,,Unknown,330,2013-02-16 22:56:00
6:56 PM,21.9,12.9,68,29.87,-9999.0,NNW,11.5,-,N/A,,Unknown,330,2013-02-16 23:56:00
7:56 PM,19.9,10.0,65,29.88,-9999.0,NNW,11.5,23.0,N/A,,Unknown,330,2013-02-17 00:56:00
8:56 PM,19.0,8.1,62,29.88,-9999.0,NNW,12.7,28.8,N/A,,Unknown,340,2013-02-17 01:56:00
9:56 PM,17.1,8.1,68,29.84,-9999.0,NNW,12.7,-,N/A,,Unknown,330,2013-02-17 02:56:00
10:56 PM,16.0,8.1,71,29.83,-9999.0,NNW,11.5,20.7,N/A,,Unknown,340,2013-02-17 03:56:00
11:56 PM,15.1,8.1,74,29.81,-9999.0,North,13.8,-,N/A,,Unknown,350,2013-02-17 04:56:00